{"data":{"norad_id":64741,"intl_designator":"2025-144T","name":"STARLINK-34205","alt_names":[],"object_type":"PAYLOAD","status":"ACTIVE","operator":null,"country":"US","launch_date":"2025-07-02","launch_site_code":"AFETR","launch_vehicle":null,"mission":null,"orbit_class":"UNKNOWN","rcs_meters":null,"size_class":null,"mass_kg":null,"dimensions":null,"purposes":["comms"],"wikipedia_slug":null,"has_3d_model":false,"image_url":null,"decayed_at":null,"tle_current":{"epoch":"2026-05-24T12:48:27.885312Z","epoch_age_seconds":105536,"freshness":"FRESH","line1":"1 64741U 25144T   26144.53365608  .00007379  00000+0  26100-3 0  9998","line2":"2 64741  53.1585 188.7726 0000983  77.1968 282.9143 15.30200693 51327","mean_motion":15.30200693,"eccentricity":9.83e-5,"inclination_deg":53.1585,"raan_deg":188.7726,"arg_perigee_deg":77.1968,"mean_anomaly_deg":282.9143,"bstar":0.000261,"rev_number":5132,"period_min":94.105303087848,"perigee_km":474.539315942,"apogee_km":475.88668455204,"semimajor_km":6853.350000247,"source":"CELESTRAK","updated_at":"2026-05-25T13:38:20.548209Z"}}}